Location: Home
(42.5358°N, 72.7383°W)
Time: 18:23:28
(UTC-04:00)

Explorer 11/Cluster Stage 4 - Pass Details

Date: 08 August 2024
Orbit: 464 x 1208 km, 28.8° (Epoch: 19 September)

Event Time Altitude Azimuth Distance (km) Brightness Sun altitude
Rises 00:09:14 0° 219° (SW) 3,473 - -30.5°
Reaches altitude 10° 00:12:28 10° 202° (SSW) 2,675 - -30.6°
Maximum altitude 00:16:51 19° 160° (SSE) 2,268 - -30.8°
Drops below altitude 10° 00:21:40 10° 119° (ESE) 2,993 - -30.9°
Sets 00:25:33 0° 103° (ESE) 4,041 - -31.0°
